KB4QOR Weather Reports


Display with metric or nautical units.
time (UTC)temp
F
wind
direction
speed
MPH
gust
MPH
rain 1hr
in
rain 24hr
in
rain mn
in
humidity
%
barometer
mb
20260904140041 77 0 0.0 0.0 0.00 0.00 0.00 100 1017.4
20260904134537 77 0 0.0 0.0 0.00 0.00 0.00 100 1017.4
20260904133040 76 0 0.0 0.0 0.00 0.00 0.00 100 1017.4
20260904131536 76 0 0.0 0.0 0.00 0.00 0.00 100 1017.3
20260904130034 76 0 0.0 0.0 0.00 0.00 0.00 100 1017.3
20260904124535 75 0 0.0 0.0 0.00 0.00 0.00 100 1017.3
20260904123041 75 0 0.0 0.0 0.00 0.00 0.00 100 1017.1
20260904121536 75 0 0.0 0.0 0.00 0.00 0.00 100 1017.1
20260904120046 75 0 0.0 0.0 0.00 0.00 0.00 100 1017.1
20260904114534 75 0 0.0 0.0 0.00 0.00 0.00 100 1016.8
20260904113039 75 0 0.0 0.0 0.00 0.00 0.00 100 1016.8
20260904111536 75 0 0.0 0.0 0.00 0.00 0.00 100 1016.5
20260904110039 75 0 0.0 0.0 0.00 0.00 0.00 100 1016.5
20260904104535 75 0 0.0 0.0 0.00 0.00 0.00 100 1016.3
20260904103042 76 0 0.0 0.0 0.00 0.00 0.00 100 1016.2
20260904101540 76 0 0.0 0.0 0.00 0.00 0.00 100 1016.2
20260904100038 76 0 0.0 0.0 0.00 0.00 0.00 100 1016.2
20260904094537 76 0 0.0 0.0 0.00 0.00 0.00 100 1016.1
20260904093037 76 0 0.0 0.0 0.00 0.00 0.00 100 1016.0
20260904091534 77 0 0.0 0.0 0.00 0.00 0.00 100 1016.0
20260904090038 77 0 0.0 0.0 0.00 0.00 0.00 100 1016.1
20260904084543 77 0 0.0 0.0 0.00 0.00 0.00 100 1016.0
20260904083036 77 0 0.0 0.0 0.00 0.00 0.00 100 1016.0
20260904081539 78 0 0.0 0.0 0.00 0.00 0.00 100 1016.0
20260904080055 78 0 0.0 0.0 0.00 0.00 0.00 100 1015.9
20260904074538 78 0 0.0 0.0 0.00 0.00 0.00 100 1015.8
20260904073037 78 0 0.0 0.0 0.00 0.00 0.00 100 1015.8
20260904071535 78 0 0.0 0.0 0.00 0.00 0.00 100 1015.8
20260904070046 79 0 0.0 0.0 0.00 0.00 0.00 100 1015.9
20260904064534 79 0 0.0 0.0 0.00 0.00 0.00 100 1016.0
20260904063047 79 0 0.0 0.0 0.00 0.00 0.00 100 1016.0
20260904061533 80 0 0.0 0.0 0.00 0.00 0.00 100 1016.1
20260904060046 80 0 0.0 0.0 0.00 0.00 0.00 100 1016.2
20260904054544 80 0 0.0 0.0 0.00 0.00 0.00 100 1016.3
20260904053051 80 0 0.0 0.0 0.00 0.00 0.00 100 1016.5
20260904051537 81 0 0.0 0.0 0.00 0.00 0.00 100 1016.4
20260904050037 81 0 0.0 0.0 0.00 0.00 0.00 100 1016.4
20260904044538 81 0 0.0 0.0 0.00 0.00 0.00 100 1016.5
20260904043040 82 0 0.0 0.0 0.00 0.00 0.00 100 1016.6
20260904041535 82 0 0.0 0.0 0.00 0.00 0.00 1 1016.6
20260904040036 82 0 0.0 0.0 0.00 0.00 0.00 6 1016.6
20260904034534 83 0 0.0 0.0 0.00 0.00 0.00 7 1016.6
20260904033039 83 0 0.0 0.0 0.00 0.00 0.00 14 1016.6
20260904031536 83 0 0.0 0.0 0.00 0.00 0.00 23 1016.6
20260904030051 84 0 0.0 0.0 0.00 0.00 0.00 28 1016.8
20260904024534 85 0 0.0 0.0 0.00 0.01 0.00 34 1017.0
20260904023039 85 0 0.0 0.0 0.00 0.01 0.00 40 1017.1
20260904021550 86 0 0.0 0.0 0.00 0.01 0.00 46 1016.9
20260904020036 87 0 0.0 0.0 0.00 0.01 0.00 54 1016.9
20260904014545 88 0 0.0 0.0 0.00 0.01 0.00 57 1017.0
20260904013037 89 0 0.0 0.0 0.00 0.01 0.00 59 1017.0
20260904011551 90 0 0.0 0.0 0.00 0.01 0.00 61 1016.7
20260904010039 91 0 0.0 0.0 0.00 0.01 0.00 61 1016.3
20260904004538 93 0 0.0 0.0 0.00 0.01 0.00 62 1016.3
20260904003037 95 0 0.0 0.0 0.00 0.01 0.00 62 1016.1
20260904001533 97 0 0.0 0.0 0.00 0.01 0.00 62 1016.0
20260904000039 98 0 0.0 0.0 0.00 0.01 0.00 61 1015.9
20260903234535 99 0 0.0 0.0 0.00 0.01 0.00 60 1015.7
20260903233039 101 0 0.0 0.0 0.00 0.01 0.00 59 1015.7
20260903231543 101 0 0.0 0.0 0.00 0.01 0.00 53 1015.8
20260903230036 102 0 0.0 0.0 0.00 0.01 0.00 51 1015.8
20260903224539 103 0 0.0 0.0 0.00 0.01 0.00 49 1015.9
20260903223040 103 0 0.0 0.0 0.00 0.01 0.00 47 1015.8
20260903221536 103 0 0.0 0.0 0.00 0.01 0.00 46 1015.7
20260903220043 103 0 0.0 0.0 0.00 0.01 0.00 53 1015.9
20260903214536 104 0 0.0 0.0 0.00 0.01 0.00 52 1015.8
20260903213039 104 0 0.0 0.0 0.00 0.01 0.00 52 1015.8
20260903211544 104 0 0.0 0.0 0.00 0.01 0.00 49 1016.1
20260903210044 103 0 0.0 0.0 0.00 0.01 0.00 48 1016.2
20260903204534 103 0 0.0 0.0 0.00 0.01 0.00 49 1016.3
20260903203036 103 0 0.0 0.0 0.00 0.01 0.00 50 1016.3
20260903201537 102 0 0.0 0.0 0.00 0.01 0.00 48 1016.4
20260903200037 102 0 0.0 0.0 0.00 0.01 0.00 49 1016.5
20260903194538 101 0 0.0 0.0 0.00 0.01 0.00 53 1016.7
20260903193036 101 0 0.0 0.0 0.00 0.01 0.00 53 1016.9
20260903191537 100 0 0.0 0.0 0.00 0.01 0.00 54 1017.2
20260903190037 99 0 0.0 0.0 0.00 0.01 0.00 53 1017.2
20260903184536 97 0 0.0 0.0 0.00 0.01 0.00 59 1017.3
20260903183038 96 0 0.0 0.0 0.00 0.01 0.00 57 1017.4
20260903181541 94 0 0.0 0.0 0.00 0.01 0.00 60 1017.4
20260903180043 93 0 0.0 0.0 0.00 0.01 0.00 61 1017.8
20260903174535 91 0 0.0 0.0 0.00 0.01 0.00 62 1017.9
20260903173034 89 0 0.0 0.0 0.00 0.01 0.00 63 1017.9
20260903171545 88 0 0.0 0.0 0.00 0.01 0.00 61 1018.1
20260903170043 87 0 0.0 0.0 0.00 0.01 0.00 57 1018.1
20260903164535 86 0 0.0 0.0 0.00 0.01 0.00 48 1018.3
20260903163039 85 0 0.0 0.0 0.00 0.01 0.00 30 1018.4
20260903161539 84 0 0.0 0.0 0.00 0.01 0.00 5 1018.6
20260903160035 84 0 0.0 0.0 0.00 0.01 0.00 100 1018.4
20260903154538 83 0 0.0 0.0 0.00 0.01 0.00 100 1018.5
20260903153035 81 0 0.0 0.0 0.00 0.01 0.00 100 1018.4
20260903151546 80 0 0.0 0.0 0.00 0.01 0.00 100 1018.5
20260903150044 79 0 0.0 0.0 0.00 0.01 0.00 100 1018.4
20260903144538 78 0 0.0 0.0 0.00 0.01 0.00 100 1018.3
20260903143040 78 0 0.0 0.0 0.00 0.01 0.00 100 1018.4
20260903141538 77 0 0.0 0.0 0.00 0.01 0.00 100 1018.4